Find Starlink 34167

NORAD ID: 64228 Int'l Des: 2025-117 Owner: SPXS Country: US Constellation: starlink operational
LEOCIRCULAR

Live-Position

3D-Globus wird geladen...

Über Starlink 34167

Beschreibung wird geladen...

Nächste Überflüge

Passes for default location (London). Set your location on the main map for personalized predictions.

Höhenverlauf

Loading altitude history...

Zweizeiliger Elementsatz

1 64228U 25117AB 26106.59320152 .00009380 00000-0 32841-3 0 9991
2 64228 53.1598 223.2018 0001144 89.6317 270.4815 15.30203029 50363
Epoch: 16. Apr. 2026 • Age: 16 hours

Aktueller Status

Höhe 475.2 km
Geschwindigkeit 7.63 km/s
Subsatellitenpunkt 19.27°N, 80.69°E
Startdatum 31. Mai 2025
Alter 0.8 years
Typ internet

Technische Details

Klassifizierung Payload
Masse 575.00 kg
Trockenmasse 530.00 kg
Gesamtmasse 575.00 kg
Länge 0.30 m
Durchmesser 4.10 m
Spannweite 29.00 m
Form Box + pan
Hersteller SPXS
Bus-Typ Starlink V2MO
Phasenstatus In Orbit
Besitzer/Staat SPXS/US

Most Searched